Location: White Ridge parking lot
(35.4984°N, 106.8413°W)
Time: 05:18:46
(UTC-06:00)

Envisat - Pass Details

Date: 27 July 2019
Orbit: 764 x 766 km, 98.1° (Epoch: 21 August)

Event Time Altitude Azimuth Distance (km) Brightness Sun altitude
Rises 20:42:59 0° 209° (SSW) 3,215 6.2 -5.8°
Reaches altitude 10° 20:46:14 10° 231° (SW) 2,294 5.8 -6.4°
Maximum altitude 20:49:11 16° 267° (W) 1,939 6.1 -6.9°
Drops below altitude 10° 20:52:09 10° 304° (WNW) 2,302 7.3 -7.5°
Sets 20:55:26 0° 326° (NW) 3,233 7.6 -8.1°
